Probability
3 3 0 0 0 0 0 0 0 0 0 0 0 0 0 0 0 0 0 0 71 81 65 39 52 42 48 71 77 87 61 19 42 97 77 42 45 58 74 94 97 100 100
0 0 0 0 0 0 0 0 0 0 0 0 0 0 0 0 0 0 0 0 42 84 97 100 94 94 94 94 94 94 94 55 42 90 87 58 42 23 19 45 71 94 97
0 0 0 0 0 0 0 0 0 0 0 0 0 0 0 0 0 0 0 0 0 13 71 97 97 100 100 100 100 100 97 100 81 97 100 81 71 29 16 6 6 29 55
0 0 0 0 0 0 0 0 0 0 0 0 0 0 0 0 0 0 0 0 0 0 0 16 65 94 94 97 100 100 100 100 100 97 97 90 71 58 42 10 6 3 3
0 0 0 0 0 0 0 0 0 0 0 0 0 0 0 0 0 0 0 0 0 0 0 0 6 26 42 52 81 87 94 100 94 94 81 84 74 65 52 13 3 3 0
0 0 0 0 0 0 0 0 0 0 0 0 0 0 0 0 0 0 0 0 0 0 0 0 0 0 0 13 52 74 52 61 65 48 16 42 84 84 42 3 3 0 0
0 0 0 0 0 0 0 0 0 0 0 0 0 0 0 0 0 0 0 0 0 0 0 0 0 0 0 0 13 23 23 19 32 16 6 35 90 68 23 0 3 0 0
0 0 0 0 0 0 0 0 0 0 0 0 0 0 0 0 0 0 0 0 0 0 0 0 0 0 0 0 0 3 3 3 13 19 13 29 55 13 6 3 0 0 0
0 0 0 0 0 0 0 0 0 0 0 0 0 0 0 0 0 0 0 0 0 0 0 0 0 0 0 0 0 0 0 10 16 10 52 71 35 16 19 0 0 0 0
0 0 0 0 0 0 0 0 0 0 0 0 0 0 0 0 0 0 0 0 0 0 0 0 0 0 0 0 0 0 0 0 6 19 26 39 23 16 13 0 0 0 0
0 0 0 0 0 0 0 0 0 0 0 0 0 0 0 0 0 0 0 0 0 0 0 0 0 0 0 0 0 0 0 0 0 0 3 3 3 6 6 0 0 0 0
0 0 0 0 0 0 0 0 0 0 0 0 0 0 0 0 0 0 0 0 0 0 0 0 0 0 0 0 0 0 0 0 0 0 0 0 0 0 0 0 0 0 0
0 0 0 0 0 0 0 0 0 0 0 0 0 0 0 0 0 0 0 0 0 0 0 0 0 0 0 0 0 0 0 0 0 0 0 0 0 0 0 0 0 0 0
0 0 0 0 0 0 0 0 0 0 0 0 0 0 0 0 0 0 0 0 0 0 0 0 0 0 0 0 0 0 0 0 0 0 0 0 0 0 0 0 0 0 0
0 0 0 0 0 0 0 0 0 0 0 0 0 0 0 0 0 0 0 0 0 0 0 0 0 0 0 0 0 0 0 0 0 0 0 0 0 0 0 0 0 0 0
0 0 0 0 0 0 0 0 0 0 0 0 0 0 0 0 0 0 0 0 0 0 0 0 0 0 0 0 0 0 0 0 0 0 0 0 0 0 0 0 0 0 0
0 0 0 0 0 0 0 0 0 0 0 0 0 0 0 0 0 0 0 0 0 0 0 0 0 0 0 0 0 0 0 0 0 0 0 0 0 0 0 0 0 0 0
0 0 0 0 0 0 0 0 0 0 0 0 0 0 0 0 0 0 0 0 0 0 0 0 0 0 0 0 0 0 0 0 0 0 0 0 0 0 0 0 0 0 0
0 0 0 0 0 0 0 0 0 0 0 0 0 0 0 0 0 0 0 0 0 0 0 0 0 0 0 0 0 0 0 0 0 0 0 0 0 0 0 0 0 0 0
0 0 0 0 0 0 0 0 0 0 0 0 0 0 0 0 0 0 0 0 0 0 0 0 0 0 0 0 0 0 0 0 0 0 0 0 0 0 0 0 0 0 0
0 0 0 0 0 0 0 0 0 0 0 0 0 0 0 0 0 0 0 0 0 0 0 0 0 0 0 0 0 0 0 0 0 0 0 0 0 0 0 0 0 0 0
0 0 0 0 0 0 0 0 0 0 0 0 0 0 0 0 0 0 0 0 0 0 0 0 0 0 0 0 0 0 0 0 0 0 0 0 0 0 0 0 0 0 0
0 0 0 0 0 0 0 0 0 0 0 0 0 0 0 0 0 0 0 0 0 0 0 0 0 0 0 0 0 0 0 0 0 0 0 0 0 0 0 0 0 0 0
0 0 0 0 0 0 0 0 0 0 0 0 0 0 0 0 0 0 0 0 0 0 0 0 0 0 0 0 0 0 0 0 0 0 0 0 0 0 0 0 0 0 0
0 0 0 0 0 0 0 0 0 0 0 0 0 0 0 0 0 0 0 0 0 0 0 0 0 0 0 0 0 0 0 0 0 0 0 0 0 0 0 0 0 0 0
0 0 0 0 0 0 0 0 0 0 0 0 0 0 0 0 0 0 0 0 0 0 0 0 0 0 0 0 0 0 0 0 0 0 0 0 0 0 0 0 0 0 0
Height
5839 5835 5832 5830 5828 5825 5824 5822 5819 5817 5814 5812 5809 5807 5805 5803 5802 5800 5799 5797 5796 5794 5792 5790 5789 5789 5788 5789 5789 5790 5791 5792 5793 5795 5796 5798 5800 5802 5803 5805 5807 5810 5813
5832 5829 5827 5824 5822 5819 5817 5814 5811 5808 5805 5802 5800 5797 5795 5793 5791 5789 5787 5785 5783 5782 5780 5778 5777 5775 5775 5776 5777 5777 5778 5779 5781 5782 5784 5786 5787 5790 5792 5794 5796 5799 5803
5824 5820 5817 5814 5811 5808 5806 5802 5799 5796 5793 5790 5788 5785 5783 5780 5777 5775 5773 5770 5769 5767 5766 5765 5763 5762 5761 5762 5763 5763 5764 5765 5766 5768 5770 5772 5774 5776 5779 5781 5784 5787 5791
5815 5812 5809 5805 5801 5798 5794 5790 5786 5782 5779 5776 5774 5772 5769 5766 5763 5759 5757 5754 5752 5750 5749 5748 5747 5746 5745 5746 5746 5747 5748 5750 5751 5753 5754 5756 5759 5762 5765 5768 5771 5775 5779
5806 5802 5799 5795 5792 5788 5783 5779 5775 5770 5767 5763 5761 5758 5755 5751 5748 5745 5742 5739 5736 5733 5731 5729 5727 5726 5726 5727 5728 5729 5731 5733 5735 5736 5738 5740 5743 5746 5749 5753 5757 5761 5765
5797 5793 5789 5785 5781 5776 5771 5767 5763 5759 5755 5750 5747 5744 5741 5737 5733 5729 5725 5722 5718 5714 5711 5708 5706 5706 5706 5707 5708 5709 5710 5713 5715 5716 5719 5723 5726 5729 5732 5736 5741 5746 5750
5789 5784 5779 5775 5771 5766 5761 5756 5752 5746 5740 5735 5730 5727 5724 5720 5715 5710 5705 5700 5695 5690 5687 5684 5682 5682 5684 5686 5687 5689 5690 5692 5695 5696 5698 5702 5706 5710 5714 5718 5723 5728 5734
5779 5773 5768 5763 5758 5753 5747 5741 5736 5730 5724 5716 5709 5705 5702 5702 5697 5691 5683 5676 5670 5664 5660 5657 5655 5657 5659 5662 5665 5667 5669 5672 5675 5677 5679 5683 5686 5689 5693 5698 5703 5710 5716
5766 5761 5755 5749 5743 5736 5730 5723 5717 5710 5704 5696 5687 5681 5677 5676 5674 5671 5661 5655 5649 5643 5637 5633 5631 5633 5635 5639 5643 5646 5649 5653 5655 5657 5659 5663 5666 5669 5672 5677 5683 5690 5697
5753 5747 5741 5734 5727 5719 5712 5705 5697 5690 5683 5675 5668 5661 5656 5653 5651 5649 5644 5638 5632 5626 5620 5615 5613 5613 5616 5619 5623 5626 5630 5634 5638 5640 5641 5644 5646 5649 5652 5657 5663 5669 5676
5740 5733 5726 5718 5711 5703 5696 5688 5681 5674 5666 5658 5651 5645 5641 5638 5635 5632 5628 5624 5619 5613 5607 5603 5600 5600 5601 5605 5608 5611 5614 5617 5620 5622 5624 5625 5626 5628 5632 5637 5642 5648 5655
5727 5719 5711 5704 5697 5690 5683 5676 5669 5662 5655 5647 5641 5634 5629 5626 5622 5618 5614 5610 5607 5603 5598 5593 5591 5591 5592 5595 5597 5599 5601 5603 5605 5607 5608 5609 5609 5610 5612 5617 5622 5628 5635
5715 5708 5699 5692 5686 5679 5673 5666 5659 5652 5645 5638 5631 5624 5618 5613 5609 5605 5601 5597 5595 5593 5590 5585 5583 5582 5583 5584 5586 5588 5590 5591 5593 5594 5594 5594 5594 5594 5595 5599 5605 5612 5617
5703 5695 5688 5681 5675 5669 5662 5656 5649 5642 5635 5628 5622 5615 5610 5604 5598 5594 5589 5585 5583 5582 5581 5578 5574 5573 5574 5575 5576 5577 5579 5580 5581 5582 5581 5580 5579 5580 5581 5584 5589 5595 5601
5688 5681 5676 5670 5665 5659 5652 5645 5639 5631 5625 5618 5611 5605 5600 5594 5589 5585 5580 5575 5572 5570 5571 5568 5565 5564 5565 5566 5567 5567 5569 5570 5571 5571 5569 5567 5566 5566 5567 5570 5574 5579 5585
5675 5671 5666 5660 5655 5649 5642 5635 5628 5620 5613 5605 5599 5592 5587 5583 5579 5575 5572 5567 5563 5560 5560 5559 5556 5556 5557 5558 5558 5559 5561 5562 5562 5561 5559 5556 5554 5554 5555 5557 5559 5563 5569
5667 5662 5657 5651 5645 5638 5631 5624 5616 5608 5600 5592 5584 5578 5573 5569 5567 5564 5562 5559 5555 5551 5550 5550 5548 5548 5549 5550 5550 5551 5552 5553 5553 5552 5550 5547 5546 5545 5544 5545 5546 5549 5553
5659 5653 5647 5641 5635 5627 5619 5611 5603 5595 5587 5579 5571 5564 5559 5555 5553 5552 5551 5550 5547 5544 5542 5542 5542 5542 5542 5543 5543 5544 5545 5545 5545 5544 5542 5540 5538 5536 5534 5532 5532 5535 5539
5650 5644 5638 5631 5624 5615 5607 5599 5590 5582 5574 5566 5559 5553 5547 5542 5541 5540 5540 5540 5539 5537 5536 5536 5536 5536 5537 5537 5538 5539 5539 5538 5538 5537 5535 5533 5530 5526 5522 5520 5519 5521 5525
5642 5635 5628 5621 5612 5603 5594 5586 5577 5569 5562 5555 5548 5542 5537 5532 5530 5529 5530 5531 5531 5531 5530 5530 5531 5531 5532 5533 5533 5533 5533 5532 5532 5531 5529 5525 5521 5515 5509 5504 5503 5506 5513
5633 5626 5618 5609 5600 5591 5581 5573 5565 5558 5551 5545 5539 5533 5527 5523 5520 5520 5521 5522 5524 5524 5525 5525 5526 5526 5527 5528 5529 5529 5528 5527 5527 5526 5523 5519 5512 5506 5499 5493 5490 5494 5502
5623 5615 5606 5596 5587 5578 5569 5560 5553 5547 5541 5535 5530 5523 5518 5515 5513 5512 5513 5515 5517 5518 5519 5520 5521 5521 5522 5524 5524 5524 5524 5523 5523 5522 5519 5514 5508 5502 5496 5491 5489 5492 5499
5613 5603 5594 5584 5575 5565 5557 5549 5542 5535 5530 5525 5520 5515 5511 5507 5506 5506 5506 5508 5511 5512 5514 5515 5516 5517 5519 5520 5521 5521 5520 5520 5520 5519 5517 5513 5508 5503 5499 5495 5494 5496 5501
5601 5591 5582 5572 5563 5553 5545 5538 5530 5524 5519 5515 5511 5507 5504 5501 5500 5500 5501 5503 5506 5507 5509 5511 5513 5515 5516 5517 5518 5519 5519 5520 5520 5520 5517 5514 5510 5507 5504 5503 5500 5501 5506
5590 5580 5570 5560 5551 5542 5534 5527 5520 5513 5509 5506 5503 5500 5498 5495 5494 5494 5496 5499 5502 5504 5506 5508 5510 5512 5514 5515 5517 5518 5519 5520 5521 5520 5519 5516 5514 5512 5511 5510 5509 5509 5513
5579 5569 5558 5548 5539 5532 5524 5517 5511 5505 5501 5498 5497 5494 5492 5490 5489 5490 5493 5495 5498 5501 5503 5505 5508 5509 5512 5514 5516 5518 5520 5522 5522 5522 5521 5520 5519 5518 5518 5518 5519 5521 5525
Wind_Speed
30 31 30 29 29 31 33 34 35 37 38 40 42 41 41 41 41 41 41 42 43 44 46 47 48 48 48 48 48 48 48 47 46 46 47 47 48 48 48 47 46 46 43
33 32 32 32 33 35 38 40 42 43 45 46 46 46 45 45 45 46 46 47 47 48 49 50 52 51 51 51 51 51 52 53 54 54 54 53 52 50 49 47 46 46 46
36 36 36 37 38 39 42 45 48 49 50 50 50 50 50 51 51 51 50 50 50 50 51 52 54 55 54 54 53 53 53 55 57 58 59 60 58 56 53 51 48 46 46
39 38 38 39 38 40 43 46 49 51 51 52 52 53 55 56 56 55 56 57 57 57 57 57 58 58 57 57 56 56 56 56 56 58 60 61 62 62 59 56 54 51 49
42 43 43 42 42 44 46 47 50 51 51 52 54 56 57 57 58 59 61 63 65 66 65 64 64 63 61 60 59 59 60 60 59 60 61 62 63 63 63 62 61 58 54
42 44 45 46 46 48 49 51 52 53 54 55 58 60 60 62 64 66 68 71 72 73 73 72 71 70 68 66 65 65 66 65 64 63 63 63 64 65 65 65 65 65 62
43 45 47 48 48 50 53 56 57 59 62 65 67 68 68 69 70 72 75 77 79 81 82 81 80 79 76 73 71 69 70 69 68 66 64 62 64 65 67 68 67 67 67
46 49 51 53 54 56 58 60 62 65 68 72 75 76 75 74 74 73 73 74 75 77 78 80 81 80 78 76 73 71 70 67 65 66 64 63 61 63 65 68 70 70 69
51 54 55 57 59 61 63 65 68 71 73 76 77 78 77 75 69 65 64 64 64 64 66 68 70 70 69 68 67 65 64 60 58 61 62 61 60 61 64 68 71 73 72
57 58 60 62 65 67 67 67 67 67 68 69 70 69 66 62 57 53 53 54 54 55 55 56 56 55 55 54 53 53 52 52 53 57 59 59 61 62 64 66 69 71 74
60 61 64 66 66 63 60 58 57 57 57 56 54 53 52 51 51 51 50 50 49 48 47 46 44 43 42 42 42 43 44 47 48 50 52 54 57 60 62 64 66 68 70
61 64 65 62 57 53 50 49 50 50 50 50 49 49 49 49 50 50 50 49 45 41 40 39 38 38 38 38 39 41 43 45 45 43 44 47 50 53 58 62 65 66 68
62 63 59 52 49 45 44 46 47 47 47 47 47 48 48 48 48 48 48 46 42 38 36 35 35 35 36 36 38 40 41 42 43 44 45 46 47 49 51 55 60 62 64
62 57 49 46 44 42 43 44 44 46 47 48 48 47 46 46 45 45 44 43 40 36 34 32 33 34 34 34 35 37 37 37 39 41 42 43 44 46 46 48 51 55 58
56 47 43 42 41 41 43 44 46 48 49 49 49 49 46 43 41 39 38 37 35 32 29 32 34 34 33 32 32 32 31 30 32 35 37 38 39 39 40 42 45 48 51
43 39 39 39 40 43 45 47 49 50 51 52 51 50 49 46 43 41 37 35 34 30 25 28 33 34 33 31 32 31 29 27 28 30 31 31 31 32 33 36 40 44 47
37 37 37 39 42 44 46 49 51 52 53 52 52 50 49 47 44 42 39 35 33 29 22 22 27 30 30 31 31 29 27 26 25 25 25 24 24 26 30 34 37 40 44
36 37 38 41 44 47 49 50 51 52 52 50 49 47 45 44 42 41 38 34 31 27 21 17 21 24 27 28 27 25 24 24 24 24 23 22 22 25 29 33 37 39 42
37 38 41 44 47 49 49 50 50 50 49 48 45 43 41 39 37 36 36 33 29 24 19 16 19 21 22 22 21 21 22 22 22 21 21 23 26 29 32 35 38 39 39
39 41 45 48 49 49 49 48 48 48 47 45 42 40 38 35 32 31 31 29 26 22 19 16 17 19 19 18 16 17 18 19 18 18 19 23 27 29 30 31 33 35 36
42 45 48 50 51 49 48 47 45 44 42 40 39 37 34 31 27 26 26 24 22 20 18 15 16 18 18 17 15 14 14 15 14 14 17 21 22 21 19 15 16 25 33
46 49 51 52 50 48 47 47 44 41 39 36 35 33 31 27 24 23 22 21 19 18 16 14 14 15 16 16 14 11 11 11 10 10 14 17 16 11 5 1 6 19 29
48 50 52 51 50 49 46 44 42 39 37 35 32 30 27 24 21 20 19 17 16 15 14 12 10 10 11 12 10 7 7 6 4 7 12 13 10 7 8 8 10 18 25
51 52 51 50 50 48 45 42 40 38 35 32 28 25 23 21 19 17 16 14 12 11 10 9 8 8 8 8 5 3 4 3 1 7 10 10 8 8 9 11 15 20 24
51 51 50 50 48 44 42 39 37 34 30 25 23 22 21 19 16 14 13 12 10 10 10 8 8 8 8 7 5 6 6 4 2 6 7 8 10 11 12 16 21 26 31
51 51 51 48 44 41 39 35 29 26 22 20 20 19 18 16 12 11 11 12 11 10 9 9 9 9 9 10 10 9 7 5 4 5 6 8 11 14 17 20 24 31 37
Wind_Direction
309 313 313 306 298 293 291 292 292 289 282 277 275 273 273 273 273 272 271 271 270 270 271 271 271 270 270 270 269 267 266 264 261 260 260 261 261 261 261 260 260 260 260
308 305 302 298 291 286 285 285 287 288 281 274 272 273 274 276 278 278 276 273 270 268 267 267 268 268 267 267 267 266 266 265 263 261 260 259 259 258 258 257 257 258 259
307 305 305 302 296 289 287 287 288 290 286 278 273 274 277 280 283 283 282 279 276 273 269 267 266 266 266 265 264 264 263 264 264 262 261 259 258 258 257 255 254 254 254
309 308 308 306 299 294 294 293 292 291 287 280 275 276 280 282 285 286 285 284 282 279 276 273 271 269 267 264 263 262 262 262 262 262 261 259 257 256 255 254 253 252 251
309 309 307 305 301 297 295 293 292 289 285 282 281 281 283 284 285 285 285 284 282 280 278 276 273 272 269 268 266 266 265 265 264 264 262 260 258 256 254 253 251 251 250
307 306 303 303 301 299 297 294 292 287 285 284 284 285 286 285 284 284 283 282 281 279 277 275 273 271 269 267 266 267 268 268 269 267 264 260 258 255 254 252 251 250 249
304 302 301 300 298 297 295 294 291 288 287 286 286 286 285 285 285 285 285 285 282 279 276 273 271 270 269 268 268 268 269 270 270 268 265 261 257 254 252 250 249 249 249
303 302 301 300 299 297 295 293 291 288 287 287 287 286 286 285 286 287 288 287 285 282 278 274 271 269 268 268 269 270 270 270 269 266 263 261 257 252 249 246 245 245 246
305 304 303 301 300 298 295 294 293 292 291 289 288 288 287 287 286 287 288 289 288 286 281 276 272 269 268 267 267 267 266 264 262 260 260 259 256 251 247 244 242 241 241
305 305 304 302 301 300 299 299 298 297 295 293 291 290 289 288 287 287 287 290 291 289 285 280 274 268 265 264 263 263 261 260 258 258 259 259 257 253 249 245 242 240 239
305 305 304 304 303 302 303 303 303 303 302 300 298 294 292 291 290 290 289 290 291 289 286 281 275 267 262 259 259 260 260 260 259 259 261 261 259 256 251 246 243 241 239
305 305 304 303 303 303 304 305 306 306 306 304 302 299 296 294 292 291 291 290 290 289 285 279 272 267 263 259 258 258 259 262 262 263 264 264 263 259 254 248 243 241 239
304 303 301 301 302 302 304 306 307 308 308 306 304 301 298 295 294 293 291 289 286 284 282 277 270 265 261 259 259 260 261 263 265 266 268 267 263 260 256 251 245 242 240
302 301 298 300 301 303 305 306 308 309 310 308 304 301 298 295 293 293 293 291 286 279 274 271 266 262 261 261 261 261 262 263 265 268 269 269 265 261 258 252 246 242 240
301 298 298 300 302 304 306 308 309 311 312 309 304 298 293 291 290 291 295 297 293 283 269 263 261 261 262 263 263 262 264 268 269 269 271 271 266 260 257 252 246 242 240
300 298 301 303 305 307 309 309 309 311 312 310 305 298 291 285 283 285 291 296 298 293 275 258 257 260 263 264 264 266 266 268 269 270 272 272 267 260 256 253 249 244 239
301 302 304 306 309 311 310 310 310 311 312 311 307 300 292 285 280 279 283 291 298 296 285 260 254 256 260 265 268 269 267 267 268 269 271 272 268 262 258 255 251 245 238
303 305 307 309 312 312 311 310 311 312 313 311 308 303 296 287 280 276 277 283 291 293 286 265 252 253 258 265 268 268 266 266 265 265 269 273 272 267 262 258 252 246 238
305 307 310 312 313 312 311 310 310 312 312 311 309 306 300 291 282 275 274 277 283 286 281 265 254 256 261 266 268 267 265 263 262 266 274 278 278 275 269 264 256 248 238
307 309 311 312 313 312 311 310 309 310 311 310 310 308 305 297 285 277 273 273 275 278 275 264 252 255 260 264 268 266 262 260 264 272 283 286 288 287 283 271 256 241 230
309 311 312 313 313 312 311 311 308 307 307 309 309 308 305 298 289 279 272 267 267 270 269 263 252 253 257 260 262 266 265 262 268 284 296 301 305 304 301 285 250 220 210
312 314 314 314 313 312 311 310 307 304 304 306 309 308 305 298 289 282 272 263 260 263 262 260 252 252 254 253 256 263 264 262 273 298 314 323 327 324 334 22 179 185 189
315 315 315 315 314 313 311 309 306 302 301 302 307 308 305 298 287 281 271 260 256 256 253 248 243 249 249 245 246 257 259 258 279 324 335 344 4 54 76 75 130 161 170
317 317 317 317 315 313 311 309 307 303 300 300 304 307 305 298 286 276 264 253 245 239 232 223 232 247 242 236 238 223 197 200 321 349 353 10 47 84 79 85 113 137 151
320 320 320 318 317 315 313 312 311 307 301 298 302 305 303 297 283 268 249 229 219 214 209 215 233 238 226 208 174 159 162 153 45 17 25 45 74 97 100 99 110 124 135
323 323 323 322 321 320 320 320 318 310 300 297 301 303 301 294 274 250 222 203 198 202 213 225 228 216 195 174 158 155 157 139 71 54 65 75 90 108 114 112 115 123 129